Torna al catalogo

USA 462

AttivoMilitareVLEO
NORAD 62361·PAYLOAD·🇺🇸 United States

Lanciato Dec 17, 2024 da Vandenberg Space Force Base

Loading…

Prossimi Passaggi (prossime 24 ore)

TLE

ObsoletoSource: Mike McCants

Epoca: Aug 12, 2026, 21:17 UTC

1 62361U 24243X   26224.88701016 0.00000000  00000-0  00000-0 0    03
2 62361  70.0190 139.5749 0002000 270.4481  89.5519 14.96713300    04

Traccia USA 462 in tempo reale con AllMySat

Download on the App Store